| time (UTC) | temp F | wind direction | speed knots | gust knots | rain 1hr in | rain 24hr in | rain mn in | humidity % | barometer mb |
| 20260507010049 | 50 | 0 | 0.0 | 1.7 | 0.00 | 0.32 | 0.23 | 66 | 1013.7 |
| 20260507004554 | 51 | 0 | 0.0 | 0.0 | 0.00 | 0.36 | 0.23 | 66 | 1013.6 |
| 20260507003051 | 51 | 0 | 0.0 | 2.6 | 0.00 | 0.36 | 0.23 | 61 | 1013.4 |
| 20260507001556 | 52 | 0 | 0.0 | 0.9 | 0.00 | 0.36 | 0.23 | 64 | 1013.4 |
| 20260507000056 | 53 | 0 | 0.0 | 2.6 | 0.00 | 0.36 | 0.23 | 57 | 1013.4 |
| 20260506234605 | 53 | 0 | 0.0 | 2.6 | 0.00 | 0.41 | 0.23 | 63 | 1013.2 |
| 20260506233058 | 53 | 0 | 0.0 | 0.9 | 0.00 | 0.41 | 0.23 | 59 | 1013.4 |
| 20260506231555 | 53 | 240 | 0.0 | 3.5 | 0.00 | 0.41 | 0.23 | 60 | 1013.5 |
| 20260506230052 | 54 | 0 | 0.9 | 5.2 | 0.00 | 0.41 | 0.23 | 56 | 1013.6 |
| 20260506224559 | 54 | 267 | 0.0 | 2.6 | 0.00 | 0.49 | 0.23 | 59 | 1013.7 |
| 20260506223050 | 54 | 205 | 0.9 | 3.5 | 0.00 | 0.49 | 0.23 | 57 | 1013.7 |
| 20260506221549 | 54 | 0 | 1.7 | 4.3 | 0.00 | 0.49 | 0.23 | 56 | 1013.4 |
| 20260506220054 | 54 | 11 | 0.9 | 3.5 | 0.00 | 0.49 | 0.23 | 57 | 1013.0 |
| 20260506214550 | 55 | 30 | 0.0 | 4.3 | 0.00 | 0.52 | 0.23 | 54 | 1012.9 |
| 20260506213053 | 55 | 344 | 1.7 | 7.0 | 0.00 | 0.52 | 0.23 | 55 | 1012.8 |
| 20260506211552 | 55 | 352 | 0.9 | 4.3 | 0.00 | 0.52 | 0.23 | 59 | 1012.8 |
| 20260506210054 | 55 | 335 | 1.7 | 7.0 | 0.00 | 0.52 | 0.23 | 57 | 1012.7 |
| 20260506204551 | 56 | 5 | 0.0 | 5.2 | 0.00 | 0.52 | 0.23 | 58 | 1012.5 |
| 20260506203054 | 55 | 344 | 1.7 | 7.8 | 0.00 | 0.52 | 0.23 | 55 | 1012.5 |
| 20260506201555 | 56 | 43 | 0.9 | 7.0 | 0.00 | 0.52 | 0.23 | 58 | 1012.3 |
| 20260506200051 | 55 | 344 | 1.7 | 4.3 | 0.00 | 0.52 | 0.23 | 56 | 1012.5 |
| 20260506194550 | 55 | 0 | 1.7 | 7.0 | 0.00 | 0.52 | 0.23 | 59 | 1012.6 |
| 20260506193051 | 56 | 344 | 3.5 | 7.8 | 0.00 | 0.52 | 0.23 | 57 | 1012.5 |
| 20260506191551 | 57 | 344 | 4.3 | 8.7 | 0.01 | 0.52 | 0.23 | 56 | 1012.1 |
| 20260506184558 | 58 | 328 | 2.6 | 10.4 | 0.01 | 0.52 | 0.23 | 57 | 1012.2 |
| 20260506183054 | 58 | 352 | 3.5 | 7.8 | 0.01 | 0.52 | 0.23 | 58 | 1012.4 |
| 20260506181559 | 58 | 325 | 2.6 | 8.7 | 0.00 | 0.51 | 0.22 | 55 | 1012.3 |
| 20260506180053 | 58 | 327 | 2.6 | 8.7 | 0.01 | 0.51 | 0.22 | 58 | 1012.3 |
| 20260506174553 | 58 | 352 | 2.6 | 7.8 | 0.01 | 0.51 | 0.22 | 57 | 1012.5 |
| 20260506173122 | 57 | 348 | 4.3 | 9.6 | 0.01 | 0.51 | 0.22 | 58 | 1012.4 |
| 20260506171601 | 56 | 344 | 2.6 | 8.7 | 0.01 | 0.50 | 0.21 | 55 | 1012.4 |
| 20260506170055 | 56 | 0 | 1.7 | 7.8 | 0.01 | 0.50 | 0.21 | 66 | 1012.5 |
| 20260506164557 | 55 | 345 | 1.7 | 7.0 | 0.01 | 0.50 | 0.21 | 61 | 1012.4 |
| 20260506163105 | 55 | 0 | 0.9 | 9.6 | 0.01 | 0.50 | 0.21 | 68 | 1012.6 |
| 20260506161617 | 55 | 294 | 1.7 | 7.0 | 0.01 | 0.49 | 0.20 | 68 | 1012.2 |
| 20260506160056 | 53 | 15 | 1.7 | 9.6 | 0.01 | 0.49 | 0.20 | 68 | 1012.3 |
| 20260506154554 | 53 | 306 | 2.6 | 7.0 | 0.02 | 0.49 | 0.20 | 73 | 1012.1 |
| 20260506153058 | 53 | 352 | 0.9 | 7.0 | 0.02 | 0.49 | 0.20 | 72 | 1011.9 |
| 20260506151552 | 51 | 355 | 2.6 | 8.7 | 0.01 | 0.48 | 0.19 | 71 | 1011.6 |
| 20260506150056 | 51 | 336 | 3.5 | 7.8 | 0.01 | 0.48 | 0.19 | 74 | 1011.9 |
| 20260506144554 | 51 | 346 | 0.9 | 9.6 | 0.01 | 0.47 | 0.18 | 75 | 1011.6 |
| 20260506143055 | 50 | 10 | 3.5 | 8.7 | 0.01 | 0.47 | 0.18 | 78 | 1011.3 |
| 20260506141553 | 49 | 352 | 4.3 | 7.8 | 0.01 | 0.47 | 0.18 | 76 | 1011.0 |
| 20260506140054 | 48 | 17 | 3.5 | 7.8 | 0.02 | 0.47 | 0.18 | 83 | 1011.0 |
| 20260506134556 | 48 | 350 | 1.7 | 5.2 | 0.01 | 0.46 | 0.17 | 86 | 1010.8 |
| 20260506133100 | 47 | 343 | 1.7 | 7.0 | 0.01 | 0.46 | 0.17 | 87 | 1010.8 |
| 20260506131601 | 47 | 0 | 3.5 | 7.8 | 0.02 | 0.46 | 0.17 | 87 | 1010.9 |
| 20260506130112 | 47 | 340 | 1.7 | 7.8 | 0.01 | 0.45 | 0.16 | 89 | 1010.7 |
| 20260506124601 | 46 | 338 | 1.7 | 4.3 | 0.01 | 0.45 | 0.16 | 88 | 1010.3 |
| 20260506123053 | 46 | 0 | 2.6 | 4.3 | 0.02 | 0.45 | 0.16 | 88 | 1009.9 |
| 20260506121556 | 46 | 346 | 0.9 | 4.3 | 0.01 | 0.44 | 0.15 | 87 | 1009.7 |
| 20260506120056 | 46 | 0 | 0.0 | 3.5 | 0.01 | 0.44 | 0.15 | 90 | 1009.9 |
| 20260506114550 | 46 | 0 | 1.7 | 5.2 | 0.02 | 0.44 | 0.15 | 90 | 1009.7 |
| 20260506113054 | 46 | 352 | 2.6 | 5.2 | 0.01 | 0.43 | 0.14 | 92 | 1008.7 |
| 20260506111553 | 46 | 331 | 2.6 | 5.2 | 0.02 | 0.43 | 0.14 | 93 | 1008.5 |
| 20260506110056 | 46 | 9 | 1.7 | 4.3 | 0.02 | 0.43 | 0.14 | 92 | 1008.8 |
| 20260506104553 | 46 | 313 | 1.7 | 7.0 | 0.01 | 0.42 | 0.13 | 92 | 1008.4 |
| 20260506103057 | 46 | 350 | 1.7 | 4.3 | 0.02 | 0.42 | 0.13 | 93 | 1008.8 |
| 20260506101558 | 46 | 342 | 1.7 | 4.3 | 0.01 | 0.41 | 0.12 | 93 | 1008.0 |
| 20260506100109 | 46 | 352 | 1.7 | 4.3 | 0.02 | 0.41 | 0.12 | 93 | 1007.6 |
| 20260506094553 | 46 | 29 | 1.7 | 4.3 | 0.02 | 0.41 | 0.12 | 93 | 1007.0 |
| 20260506093053 | 46 | 352 | 2.6 | 5.2 | 0.02 | 0.40 | 0.11 | 93 | 1007.8 |
| 20260506091551 | 46 | 9 | 3.5 | 6.1 | 0.02 | 0.40 | 0.11 | 93 | 1007.5 |
| 20260506090050 | 46 | 352 | 2.6 | 7.8 | 0.02 | 0.39 | 0.10 | 92 | 1007.7 |
| 20260506084620 | 46 | 352 | 4.3 | 9.6 | 0.02 | 0.39 | 0.10 | 92 | 1007.9 |
| 20260506083051 | 47 | 340 | 5.2 | 9.6 | 0.02 | 0.38 | 0.09 | 92 | 1007.6 |
| 20260506081600 | 47 | 352 | 3.5 | 8.7 | 0.02 | 0.38 | 0.09 | 94 | 1007.6 |
| 20260506073057 | 48 | 348 | 3.5 | 7.8 | 0.02 | 0.39 | 0.07 | 94 | 1007.3 |
| 20260506071552 | 48 | 341 | 2.6 | 7.0 | 0.02 | 0.39 | 0.07 | 94 | 1007.1 |
| 20260506061553 | 50 | 348 | 1.7 | 3.5 | 0.03 | 0.37 | 0.05 | 94 | 1007.0 |
| 20260506044702 | 51 | 343 | 0.9 | 2.6 | 0.02 | 0.33 | 0.01 | 94 | 1007.5 |
| 20260506043050 | 50 | 0 | 0.0 | 4.3 | 0.03 | 0.33 | 0.01 | 93 | 1007.7 |
| 20260506041601 | 50 | 360 | 1.7 | 3.5 | 0.02 | 0.32 | 0.00 | 93 | 1007.8 |
| 20260506040050 | 50 | 350 | 2.6 | 4.3 | 0.03 | 0.32 | 0.00 | 93 | 1008.0 |
| 20260506034623 | 51 | 342 | 1.7 | 4.3 | 0.03 | 0.31 | 0.31 | 93 | 1008.0 |
| 20260506033054 | 51 | 338 | 3.5 | 7.8 | 0.02 | 0.30 | 0.30 | 93 | 1008.3 |
| 20260506031603 | 52 | 351 | 0.0 | 7.0 | 0.03 | 0.30 | 0.30 | 93 | 1008.6 |
| 20260506030057 | 53 | 13 | 1.7 | 4.3 | 0.03 | 0.29 | 0.29 | 91 | 1008.6 |
| 20260506024554 | 56 | 44 | 1.7 | 7.0 | 0.03 | 0.28 | 0.28 | 90 | 1008.2 |
| 20260506023112 | 59 | 158 | 0.0 | 3.5 | 0.03 | 0.28 | 0.28 | 94 | 1008.1 |
| 20260506021553 | 59 | 0 | 0.0 | 1.7 | 0.03 | 0.27 | 0.27 | 94 | 1008.3 |
| 20260506020100 | 59 | 0 | 0.0 | 1.7 | 0.03 | 0.26 | 0.26 | 94 | 1008.4 |
| 20260506014554 | 59 | 240 | 0.0 | 2.6 | 0.03 | 0.25 | 0.25 | 94 | 1008.3 |
| 20260506013058 | 59 | 0 | 0.9 | 4.3 | 0.04 | 0.25 | 0.25 | 94 | 1008.1 |
| 20260506011615 | 59 | 259 | 0.0 | 3.5 | 0.04 | 0.24 | 0.24 | 94 | 1007.9 |